When you browse on this site, cookies collect data to enhance your experience and personalize the content and advertising you see.
Visit our Privacy Policy to learn more. By continuing to use the site, you agree to this use of cookies and data.
  • In Sweden
  • List of Countries
  • For 7 days
  • Water Temperature
  • Weather Map
  • Weather Widgets
  • user-avatar
    Login

    Hourly Weather Gisborne

    Today, 30 May, Saturday

    Time Temperature Precipitation Wind Pressure Humidity
    00:00 +9°C° 0 mm 1 mps 761 mmHg 91%
    01:00 +9°C° 0 mm 1 mps 761 mmHg 91%
    02:00 +9°C° 0 mm 1 mps 761 mmHg 90%
    03:00 +9°C° 0 mm 1 mps 762 mmHg 90%
    04:00 +9°C° 0 mm 1 mps 762 mmHg 90%
    05:00 +8°C° 0 mm 1 mps 762 mmHg 90%
    06:00 +8°C° 0 mm 1 mps 763 mmHg 92%
    07:00 +9°C° 0 mm 1 mps 763 mmHg 87%
    08:00 +10°C° 0 mm 1 mps 763 mmHg 82%
    09:00 +11°C° 0 mm 1 mps 764 mmHg 77%
    10:00 +13°C° 0 mm 1 mps 764 mmHg 72%
    11:00 +15°C° 0 mm 1 mps 764 mmHg 66%
    12:00 +17°C° 0 mm 2 mps 764 mmHg 58%
    13:00 +17°C° 0 mm 2 mps 764 mmHg 61%
    14:00 +16°C° 0 mm 3 mps 764 mmHg 65%
    15:00 +16°C° 0 mm 3 mps 764 mmHg 68%
    16:00 +14°C° 0 mm 2 mps 764 mmHg 77%
    17:00 +13°C° 0 mm 2 mps 765 mmHg 86%
    18:00 +11°C° 0 mm 1 mps 766 mmHg 95%
    19:00 +10°C° 0.1 mm 2 mps 766 mmHg 95%
    20:00 +10°C° 0.1 mm 2 mps 766 mmHg 96%
    21:00 +9°C° 0.1 mm 2 mps 767 mmHg 96%
    22:00 +10°C° 0 mm 2 mps 767 mmHg 96%
    23:00 +10°C° 0 mm 2 mps 767 mmHg 95%

    Tomorrow, 31 May, Sunday

    Time Temperature Precipitation Wind Pressure Humidity
    00:00 +10°C° 0 mm 2 mps 768 mmHg 95%
    01:00 +10°C° 0 mm 2 mps 768 mmHg 94%
    02:00 +10°C° 0 mm 2 mps 768 mmHg 93%
    03:00 +12°C° 0 mm 2 mps 768 mmHg 92%
    04:00 +11°C° 0 mm 1 mps 768 mmHg 92%
    05:00 +11°C° 0 mm 1 mps 768 mmHg 92%
    06:00 +11°C° 0 mm 1 mps 768 mmHg 92%
    07:00 +11°C° 0 mm 1 mps 769 mmHg 91%
    08:00 +11°C° 0 mm 1 mps 769 mmHg 90%
    09:00 +12°C° 0 mm 1 mps 769 mmHg 89%
    10:00 +13°C° 0.1 mm 1 mps 769 mmHg 83%
    11:00 +14°C° 0.1 mm 2 mps 769 mmHg 77%
    12:00 +16°C° 0.1 mm 2 mps 769 mmHg 71%
    13:00 +14°C° 0.2 mm 3 mps 768 mmHg 78%
    14:00 +14°C° 0.2 mm 4 mps 768 mmHg 85%
    15:00 +13°C° 0.2 mm 4 mps 767 mmHg 91%
    16:00 +13°C° 0.3 mm 4 mps 767 mmHg 92%
    17:00 +12°C° 0.3 mm 5 mps 767 mmHg 94%
    18:00 +12°C° 0.3 mm 5 mps 767 mmHg 95%
    19:00 +12°C° 0.1 mm 5 mps 767 mmHg 95%
    20:00 +12°C° 0.1 mm 4 mps 767 mmHg 95%
    21:00 +11°C° 0.1 mm 4 mps 767 mmHg 95%
    22:00 +11°C° 0.1 mm 4 mps 767 mmHg 95%
    23:00 +12°C° 0.1 mm 4 mps 766 mmHg 95%

    Day after tomorrow, 1 June, Monday

    Time Temperature Precipitation Wind Pressure Humidity
    00:00 +12°C° 0.1 mm 4 mps 766 mmHg 95%
    01:00 +12°C° 0.2 mm 5 mps 765 mmHg 95%
    02:00 +13°C° 0.2 mm 5 mps 765 mmHg 95%
    03:00 +13°C° 0.2 mm 6 mps 764 mmHg 95%
    04:00 +13°C° 0.3 mm 6 mps 764 mmHg 94%
    05:00 +13°C° 0.3 mm 6 mps 763 mmHg 94%
    06:00 +13°C° 0.3 mm 6 mps 763 mmHg 94%
    07:00 +13°C° 0.7 mm 6 mps 762 mmHg 95%
    08:00 +12°C° 0.7 mm 7 mps 762 mmHg 96%
    09:00 +14°C° 0.7 mm 7 mps 762 mmHg 97%
    10:00 +13°C° 2.6 mm 8 mps 761 mmHg 97%
    11:00 +13°C° 2.6 mm 9 mps 761 mmHg 97%
    12:00 +13°C° 2.6 mm 10 mps 760 mmHg 97%
    13:00 +13°C° 2.9 mm 9 mps 759 mmHg 97%
    14:00 +15°C° 2.9 mm 9 mps 758 mmHg 98%
    15:00 +15°C° 2.9 mm 8 mps 757 mmHg 98%
    16:00 +15°C° 2.2 mm 8 mps 757 mmHg 97%
    17:00 +15°C° 2.2 mm 7 mps 757 mmHg 97%
    18:00 +15°C° 2.2 mm 7 mps 757 mmHg 96%
    19:00 +15°C° 0.2 mm 6 mps 757 mmHg 97%
    20:00 +15°C° 0.2 mm 5 mps 756 mmHg 98%
    21:00 +16°C° 0.2 mm 3 mps 756 mmHg 99%
    22:00 +16°C° 0 mm 3 mps 756 mmHg 98%
    23:00 +16°C° 0 mm 2 mps 755 mmHg 98%

    2 June, Tuesday

    Time Temperature Precipitation Wind Pressure Humidity
    00:00 +16°C° 0 mm 2 mps 755 mmHg 98%
    01:00 +16°C° 0.4 mm 2 mps 755 mmHg 98%
    02:00 +16°C° 0.4 mm 3 mps 754 mmHg 98%
    03:00 +16°C° 0.4 mm 3 mps 754 mmHg 98%
    04:00 +16°C° 0 mm 3 mps 754 mmHg 98%
    05:00 +16°C° 0 mm 2 mps 754 mmHg 98%
    06:00 +16°C° 0 mm 1 mps 754 mmHg 98%
    07:00 +16°C° 0 mm 2 mps 754 mmHg 98%
    08:00 +16°C° 0 mm 2 mps 754 mmHg 97%
    09:00 +16°C° 0 mm 2 mps 755 mmHg 97%
    10:00 +17°C° 0 mm 2 mps 755 mmHg 91%
    11:00 +18°C° 0 mm 2 mps 755 mmHg 86%
    12:00 +19°C° 0 mm 3 mps 755 mmHg 81%
    13:00 +19°C° 0 mm 3 mps 755 mmHg 77%
    14:00 +20°C° 0 mm 3 mps 755 mmHg 73%
    15:00 +20°C° 0 mm 3 mps 755 mmHg 69%
    16:00 +18°C° 0 mm 2 mps 755 mmHg 78%
    17:00 +16°C° 0 mm 2 mps 756 mmHg 87%
    18:00 +14°C° 0 mm 1 mps 757 mmHg 96%
    19:00 +14°C° 0 mm 1 mps 757 mmHg 97%
    20:00 +14°C° 0 mm 1 mps 757 mmHg 97%
    21:00 +13°C° 0 mm 1 mps 758 mmHg 97%
    22:00 +13°C° 0 mm 1 mps 758 mmHg 97%
    23:00 +13°C° 0 mm 1 mps 758 mmHg 97%

    3 June, Wednesday

    Time Temperature Precipitation Wind Pressure Humidity
    00:00 +13°C° 0 mm 1 mps 758 mmHg 97%
    01:00 +12°C° 0 mm 1 mps 758 mmHg 97%
    02:00 +12°C° 0 mm 2 mps 758 mmHg 97%
    03:00 +12°C° 0 mm 2 mps 758 mmHg 97%
    04:00 +12°C° 0 mm 2 mps 758 mmHg 97%
    05:00 +12°C° 0 mm 2 mps 758 mmHg 97%
    06:00 +10°C° 0 mm 2 mps 758 mmHg 97%
    07:00 +12°C° 0 mm 2 mps 758 mmHg 93%
    08:00 +12°C° 0 mm 3 mps 758 mmHg 90%
    09:00 +13°C° 0 mm 3 mps 758 mmHg 86%
    10:00 +14°C° 0 mm 3 mps 757 mmHg 74%
    11:00 +17°C° 0 mm 3 mps 757 mmHg 62%
    12:00 +19°C° 0 mm 3 mps 756 mmHg 50%
    13:00 +19°C° 0 mm 3 mps 756 mmHg 52%
    14:00 +18°C° 0 mm 3 mps 755 mmHg 53%
    15:00 +18°C° 0 mm 3 mps 754 mmHg 55%
    16:00 +17°C° 0 mm 3 mps 754 mmHg 63%
    17:00 +14°C° 0 mm 3 mps 754 mmHg 70%
    18:00 +14°C° 0 mm 2 mps 754 mmHg 78%
    19:00 +12°C° 0 mm 3 mps 753 mmHg 82%
    20:00 +12°C° 0 mm 3 mps 753 mmHg 86%
    21:00 +12°C° 0 mm 4 mps 753 mmHg 90%
    22:00 +11°C° 0 mm 4 mps 752 mmHg 91%
    23:00 +11°C° 0 mm 3 mps 752 mmHg 92%

    4 June, Thursday

    Time Temperature Precipitation Wind Pressure Humidity
    00:00 +11°C° 0 mm 3 mps 752 mmHg 92%
    01:00 +11°C° 0 mm 3 mps 751 mmHg 93%
    02:00 +12°C° 0 mm 3 mps 751 mmHg 94%
    03:00 +12°C° 0 mm 3 mps 751 mmHg 94%
    04:00 +12°C° 0 mm 3 mps 750 mmHg 94%
    05:00 +13°C° 0 mm 2 mps 750 mmHg 93%
    06:00 +13°C° 0 mm 2 mps 750 mmHg 93%
    07:00 +14°C° 0 mm 2 mps 750 mmHg 89%
    08:00 +13°C° 0 mm 3 mps 750 mmHg 84%
    09:00 +14°C° 0 mm 3 mps 750 mmHg 80%
    10:00 +17°C° 0 mm 3 mps 750 mmHg 73%
    11:00 +18°C° 0 mm 4 mps 750 mmHg 66%
    12:00 +19°C° 0 mm 5 mps 749 mmHg 59%
    13:00 +19°C° 0 mm 5 mps 749 mmHg 60%
    14:00 +19°C° 0 mm 5 mps 748 mmHg 60%
    15:00 +19°C° 0 mm 5 mps 748 mmHg 61%
    16:00 +16°C° 0 mm 5 mps 748 mmHg 65%
    17:00 +15°C° 0 mm 4 mps 748 mmHg 68%
    18:00 +14°C° 0 mm 4 mps 748 mmHg 72%
    19:00 +13°C° 0 mm 4 mps 748 mmHg 72%
    20:00 +13°C° 0 mm 5 mps 749 mmHg 73%
    21:00 +12°C° 0 mm 5 mps 749 mmHg 73%
    22:00 +11°C° 0 mm 6 mps 749 mmHg 72%
    23:00 +11°C° 0 mm 6 mps 749 mmHg 71%
    Show more